Waarnemingen

Advertentie
Mijn weer
Decimomannu, Italië (16546): temperatuur & dauwpunt: 15.05.2018 19:00:00 - 21.05.2018 19:00:00 (CEST)Decimomannu, Italië (16546): windsnelheid: 15.05.2018 19:00:00 - 21.05.2018 19:00:00 (CEST)Decimomannu, Italië (16546): windrichting: 15.05.2018 19:00:00 - 21.05.2018 19:00:00 (CEST)Decimomannu, Italië (16546): luchtdruk: 15.05.2018 19:00:00 - 21.05.2018 19:00:00 (CEST)Decimomannu, Italië (16546): zicht: 15.05.2018 19:00:00 - 21.05.2018 19:00:00 (CEST)
Datum & Tijd tt [°C] td [°C] ff [km/u] ff [kn] dd ppp [hPa] vv [km]
21.05.2018 19:00:00 - - - - - - -
21.05.2018 18:00:00 18,0 17,0 8 4 ZZO - 10
21.05.2018 17:00:00 17,6 16,5 9 5 ZZO 1010,9 5
21.05.2018 16:00:00 18,0 17,0 13 7 ZO - 10
21.05.2018 15:00:00 18,0 16,0 9 5 ZZO - 3,5
21.05.2018 14:00:00 17,2 16,2 11 6 ZO 1011,8 9
21.05.2018 13:00:00 17,0 16,0 13 7 ZO - 8
21.05.2018 12:00:00 17,0 16,0 8 4 ZO - 6
21.05.2018 11:00:00 17,0 15,9 5 3 Z 1012,3 5
21.05.2018 10:00:00 16,0 15,0 4 2 ZO - 5
21.05.2018 09:00:00 16,0 15,0 4 2 O - 3,5
21.05.2018 08:00:00 15,6 14,6 5 3 OZO 1012,2 2,0
21.05.2018 07:00:00 15,0 14,0 8 4 W - 3,0
21.05.2018 06:00:00 15,0 14,0 8 4 WNW - 10
21.05.2018 05:00:00 15,0 14,2 8 4 WNW 1011,0 12
21.05.2018 04:00:00 15,0 15,0 8 4 NNW - 10
21.05.2018 03:00:00 16,0 15,0 5 3 N - 10
21.05.2018 02:00:00 15,8 15,0 4 2 NW 1012,3 12
21.05.2018 01:00:00 16,0 15,0 8 4 WNW - 10
21.05.2018 00:00:00 16,0 16,0 8 4 NW - 10
20.05.2018 23:00:00 17,0 16,4 8 4 NW 1012,8 10
20.05.2018 22:00:00 17,0 17,0 8 4 NW - 10
20.05.2018 21:00:00 19,0 19,0 4 2 N - 10
20.05.2018 20:00:00 20,0 18,7 8 4 N 1011,8 20
20.05.2018 19:00:00 20,0 19,0 5 3 W - 10
20.05.2018 18:00:00 21,0 20,0 13 7 W - 10
20.05.2018 17:00:00 22,6 18,6 13 7 ZZO 1011,8 20
20.05.2018 16:00:00 23,0 19,0 26 14 ZZO - 10
20.05.2018 15:00:00 24,0 19,0 22 12 ZZO - 10
20.05.2018 14:00:00 24,6 18,3 16 9 ZZO 1011,9 25
20.05.2018 13:00:00 25,0 18,0 11 6 Z - 10
20.05.2018 12:00:00 24,0 17,0 8 4 ZZO - 10
20.05.2018 11:00:00 23,0 16,8 8 4 WNW 1012,5 20
20.05.2018 10:00:00 20,0 17,0 4 2 WNW - 10
20.05.2018 09:00:00 16,0 15,0 5 3 NW - 10
20.05.2018 08:00:00 13,0 12,1 5 3 W 1013,1 12
20.05.2018 07:00:00 12,0 11,0 2 1 NNW - 10
20.05.2018 06:00:00 12,0 11,0 4 2 N - 10
20.05.2018 05:00:00 12,0 11,1 4 2 WZW 1013,7 15
20.05.2018 04:00:00 12,0 11,0 8 4 WNW - 10
20.05.2018 03:00:00 13,0 13,0 2 1 N - 10
20.05.2018 02:00:00 14,0 13,2 4 2 N 1014,3 10
20.05.2018 01:00:00 15,0 14,0 4 2 N - 10
20.05.2018 00:00:00 16,0 15,0 5 3 ONO - 10
19.05.2018 23:00:00 16,2 15,7 5 3 O 1014,0 16
19.05.2018 22:00:00 17,0 16,0 4 2 O - 10
19.05.2018 21:00:00 18,0 18,0 8 4 OZO - 10
19.05.2018 20:00:00 19,6 18,6 11 6 ZZO 1013,2 25
19.05.2018 19:00:00 - - - - - - -
19.05.2018 18:00:00 21,0 18,0 18 10 ZO - 10
19.05.2018 17:00:00 22,0 18,6 22 12 ZZO 1013,5 20
19.05.2018 16:00:00 23,0 18,0 22 12 ZZO - 10
19.05.2018 15:00:00 24,0 19,0 18 10 ZZO - 10
19.05.2018 14:00:00 24,0 17,3 22 12 ZO 1014,0 20
19.05.2018 13:00:00 24,0 17,0 15 8 ZZO - 10
19.05.2018 12:00:00 23,0 16,0 8 4 WZW - 10
19.05.2018 11:00:00 22,0 17,4 8 4 ZO 1014,7 20
19.05.2018 10:00:00 20,0 17,0 4 2 WNW - 10
19.05.2018 09:00:00 17,0 16,0 4 2 NNW - 10
19.05.2018 08:00:00 14,6 13,8 8 4 NNW 1014,8 10
19.05.2018 07:00:00 11,0 10,0 2 1 NNW - 5
19.05.2018 06:00:00 12,0 12,0 8 4 NNW - 10
19.05.2018 05:00:00 12,2 11,4 4 2 ZZW 1013,9 12
19.05.2018 04:00:00 15,0 14,0 5 3 NNW - 10
19.05.2018 03:00:00 15,0 14,0 4 2 NW - 10
19.05.2018 02:00:00 15,8 15,0 5 3 N 1014,8 15
19.05.2018 01:00:00 16,0 15,0 4 2 N - 10
19.05.2018 00:00:00 16,0 16,0 5 3 NO - 10
18.05.2018 23:00:00 16,8 16,3 5 3 O 1014,8 15
18.05.2018 22:00:00 17,0 17,0 9 5 O - 10
18.05.2018 21:00:00 18,0 17,0 9 5 ZZO - 10
18.05.2018 20:00:00 18,4 17,8 11 6 ZO 1014,1 15
18.05.2018 19:00:00 19,0 18,0 18 10 ZZO - 10
18.05.2018 18:00:00 19,0 19,0 21 11 ZO - 10
18.05.2018 17:00:00 20,6 18,9 21 11 ZO 1013,4 20
18.05.2018 16:00:00 23,0 19,0 24 13 ZZO - 10
18.05.2018 15:00:00 24,0 18,0 18 10 ZZO - 10
18.05.2018 14:00:00 24,0 17,7 8 4 ZW 1013,8 20
18.05.2018 13:00:00 23,0 17,0 8 4 ZZO - 10
18.05.2018 12:00:00 22,0 18,0 8 4 W - 10
18.05.2018 11:00:00 20,8 17,6 4 2 W 1014,6 16
18.05.2018 10:00:00 18,0 17,0 4 2 W - 10
18.05.2018 09:00:00 15,0 14,0 5 3 ZW - 8
18.05.2018 08:00:00 13,0 11,9 2 1 W 1014,4 10
18.05.2018 07:00:00 11,0 10,0 8 4 N - 8
18.05.2018 06:00:00 11,0 10,0 4 2 NW - 10
18.05.2018 05:00:00 10,8 10,0 5 3 NW 1014,0 10
18.05.2018 04:00:00 12,0 11,0 4 2 N - 10
18.05.2018 03:00:00 13,0 12,0 4 2 NW - 10
18.05.2018 02:00:00 13,2 12,6 4 2 NW 1014,5 10
18.05.2018 01:00:00 14,0 13,0 4 2 NNW - 10
18.05.2018 00:00:00 15,0 14,0 4 2 ONO - 10
17.05.2018 23:00:00 15,2 14,7 5 3 ONO 1014,5 10
17.05.2018 22:00:00 16,0 16,0 5 3 OZO - 10
17.05.2018 21:00:00 17,0 17,0 11 6 ZO - 10
17.05.2018 20:00:00 19,0 17,0 13 7 ZO 1013,4 12
17.05.2018 19:00:00 19,0 18,0 18 10 ZZO - 10
17.05.2018 18:00:00 20,0 18,0 18 10 ZO - 10
17.05.2018 17:00:00 21,0 18,4 21 11 W 1012,7 15
17.05.2018 16:00:00 24,0 16,0 8 4 NNW - 10
17.05.2018 15:00:00 23,0 15,0 8 4 NNW - 10
17.05.2018 14:00:00 22,0 16,3 11 6 NW 1014,3 15
17.05.2018 13:00:00 21,0 15,0 9 5 NW - 10
17.05.2018 12:00:00 20,0 17,0 11 6 NNW - 10
17.05.2018 11:00:00 20,0 18,1 11 6 NNW 1014,7 12
17.05.2018 10:00:00 - - - - - - -
17.05.2018 09:00:00 16,0 15,0 8 4 NNW - 10
17.05.2018 08:00:00 13,4 12,5 5 3 OZO 1015,1 10
17.05.2018 07:00:00 10,0 9,0 5 3 N - 10
17.05.2018 06:00:00 10,0 9,0 5 3 NNW - 10
17.05.2018 05:00:00 11,0 10,2 8 4 NNO 1014,8 12
17.05.2018 04:00:00 11,0 10,0 5 3 NNO - 10
17.05.2018 03:00:00 11,0 10,0 11 6 NW - 10
17.05.2018 02:00:00 11,6 10,5 11 6 W 1015,8 10
17.05.2018 01:00:00 13,0 12,0 8 4 NNW - 10
17.05.2018 00:00:00 13,0 12,0 5 3 NW - 10
16.05.2018 23:00:00 14,0 13,2 8 4 N 1015,2 12
16.05.2018 22:00:00 15,0 15,0 5 3 NNW - 10
16.05.2018 21:00:00 17,0 16,0 9 5 NNW - 10
16.05.2018 20:00:00 18,8 16,6 16 9 NNW 1014,6 15
16.05.2018 19:00:00 20,0 17,0 21 11 NW - 10
16.05.2018 18:00:00 20,0 17,0 22 12 NNW - 10
16.05.2018 17:00:00 21,0 16,6 24 13 NW 1014,2 15
16.05.2018 16:00:00 21,0 15,0 26 14 NNW - 10
16.05.2018 15:00:00 22,0 17,0 16 9 NNW - 10
16.05.2018 14:00:00 19,8 15,9 9 5 NW 1015,8 12
16.05.2018 13:00:00 19,0 16,0 13 7 W - 10
16.05.2018 12:00:00 16,0 15,0 8 4 WZW - 10
16.05.2018 11:00:00 16,2 14,5 13 7 ZW 1016,9 10
16.05.2018 10:00:00 15,0 14,0 8 4 ZW - 10
16.05.2018 09:00:00 15,0 14,0 5 3 ZO - 10
16.05.2018 08:00:00 13,8 12,9 4 2 O 1016,1 10
16.05.2018 07:00:00 13,0 12,0 4 2 OZO - 10
16.05.2018 06:00:00 13,0 12,0 4 2 NNO - 10
16.05.2018 05:00:00 13,2 12,2 5 3 ONO 1016,0 12
16.05.2018 04:00:00 13,0 12,0 2 1 W - 10
16.05.2018 03:00:00 13,0 12,0 4 2 ONO - 10
16.05.2018 02:00:00 13,0 12,1 11 6 N 1016,4 10
16.05.2018 01:00:00 13,0 12,0 4 2 NNW - 10
16.05.2018 00:00:00 13,0 12,0 2 1 ONO - 10
15.05.2018 23:00:00 13,2 12,4 8 4 ONO 1016,9 12
15.05.2018 22:00:00 14,0 13,0 2 1 Z - 10
15.05.2018 21:00:00 14,0 13,0 8 4 NNW - 10
15.05.2018 20:00:00 14,0 13,2 11 6 NW 1015,6 12
15.05.2018 19:00:00 15,0 14,0 13 7 W - 10

tt = temperatuur
td = dauwpunt
ff = windsnelheid
dd = windrichting
ppp = luchtdruk
vv = zicht

Weerstations in de omgeving